Starlink 3795

operational
NORAD ID: 52264 Int'l Des: 2022-041 Owner: SPXS Country: US Constellation: starlink
LEOCIRCULAR

关于 Starlink 3795

正在加载描述...

实时位置

正在加载3D地球...

即将过境

高度历史

Altitude vs Time

uPlot chart will show altitude changes over time

两行轨道根数

1 52264U 22041D 25343.22431728 .00001212 00000-0 94262-4 0 9997
2 52264 53.2181 155.2334 0001499 94.5068 265.6096 15.08836145200703
Epoch: Dec 9, 2025 • Age: 14 hours

当前状态

高度 558.0 km
速度 7.58 km/s
星下点 -49.95°S, 81.07°E
发射日期 Apr 21, 2022
运行时间 3.6 years
类型 internet

技术详情

分类 Payload
质量 297.00 kg
干质量 275.00 kg
总质量 297.00 kg
长度 0.20 m
直径 2.80 m
跨度 9.00 m
形状 Box + pan
制造商 SPXS
平台类型 Starlink
阶段状态 In Orbit
所有者/国家 SPXS/US

大型星座

Loading constellations...